This demonstration page uses our WeatherBlox Daily Observations layout. Learn more.

Left ArrowRight Arrow

Hourly Observations for December 29, 2015

Temp ( °F °C ) Dew Point ( °F °C ) Humidity (%) Winds ( mph kmh ) Pressure ( in mb ) Visibility ( mi km ) Precip ( " mm )
12:51 am 00:51 Clear 35 1.7 26 -3.3 70 70 E 8 13 29.75 1007 10 16 N/A
1:51 am 01:51 Clear 35 1.7 26 -3.3 70 70 E 7 11 29.75 1007 10 16 N/A
2:51 am 02:51 Partly Cloudy 35 1.7 27 -2.8 72 72 ESE 10 17 29.74 1007 10 16 N/A
3:51 am 03:51 Mostly Clear 35 1.7 27 -2.8 72 72 ESE 9 15 29.74 1007 10 16 N/A
4:51 am 04:51 Clear 34 1.1 27 -2.8 76 76 SE 9 15 29.74 1007 10 16 N/A
5:51 am 05:51 Clear 33 0.6 26 -3.3 75 75 E 7 11 29.77 1008 10 16 N/A
6:51 am 06:51 Clear 31 -0.6 26 -3.3 82 82 SE 10 17 29.79 1009 10 16 N/A
7:51 am 07:51 Sunny 30 -1.1 25 -3.9 82 82 N 6 9 29.85 1011 10 16 N/A
8:51 am 08:51 Partly Cloudy 38 3.3 27 -2.8 65 65 ESE 5 7 29.85 1011 10 16 N/A
9:51 am 09:51 Mostly Cloudy 39 3.9 27 -2.8 62 62 SW 6 9 29.89 1012 10 16 N/A
10:51 am 10:51 Cloudy 40 4.4 28 -2.2 63 63 WNW 3 6 29.91 1013 10 16 N/A
11:51 am 11:51 Sunny 44 6.7 28 -2.2 53 53 VRB 5 7 29.91 1013 10 16 N/A
12:51 pm 12:51 Sunny 47 8.3 28 -2.2 48 48 W 8 13 29.88 1012 10 16 N/A
1:51 pm 13:51 Sunny 49 9.4 24 -4.4 38 38 WNW 9 15 29.87 1012 10 16 N/A
2:48 pm 14:48 Hazy 48 9 23 -5 37 37 W 10 17 29.91 1013 1 2 N/A
2:51 pm 14:51 Hazy 50 10 24 -4.4 36 36 WSW 10 17 29.88 1012 1 2 N/A
2:58 pm 14:58 Sunny 50 10 24 -4.4 36 36 WNW 10 17 29.91 1013 10 16 N/A
3:51 pm 15:51 Sunny 49 9.4 23 -5 36 36 WNW 8 13 29.91 1013 10 16 N/A
4:51 pm 16:51 Sunny 48 8.9 23 -5 37 37 WNW 9 15 29.95 1014 10 16 N/A
5:51 pm 17:51 Clear 43 6.1 23 -5 45 45 WNW 8 13 29.99 1016 10 16 N/A
6:51 pm 18:51 Clear 40 4.4 22 -5.6 49 49 NW 7 11 30.02 1017 10 16 N/A
7:51 pm 19:51 Clear 38 3.3 22 -5.6 52 52 NNW 10 17 30.06 1018 10 16 N/A
8:51 pm 20:51 Clear 36 2.2 22 -5.6 57 57 NNW 7 11 30.06 1018 10 16 N/A
9:51 pm 21:51 Clear 34 1.1 23 -5 64 64 SW 5 7 30.09 1019 10 16 N/A
10:51 pm 22:51 Clear 29 -1.7 21 -6.1 72 72 E 3 6 30.12 1020 10 16 N/A
11:51 pm 23:51 Clear 28 -2.2 21 -6.1 75 75 SSE 3 6 30.13 1020 10 16 N/A

Powered by AerisWeather